• In Czech Republic
  • List of Countries
  • For 7 days
  • Water Temperature
  • Satellite Maps
  • Weather Map
  • Weather Widgets
  • user-avatar
    Login

    Hourly Weather Sanctorum

    Today, 22 October, Monday

    Time Temperature Precipitation Wind Pressure Humidity
    00:00 +12°C° 0.1 mm 2 mps 555 mmHg 91%
    01:00 +12°C° 0.1 mm 2 mps 555 mmHg 92%
    02:00 +10°C° 0.1 mm 2 mps 555 mmHg 92%
    03:00 +10°C° 0 mm 2 mps 554 mmHg 92%
    04:00 +10°C° 0 mm 2 mps 554 mmHg 92%
    05:00 +10°C° 0 mm 2 mps 554 mmHg 93%
    06:00 +12°C° 0 mm 2 mps 555 mmHg 88%
    07:00 +13°C° 0 mm 2 mps 556 mmHg 82%
    08:00 +14°C° 0 mm 2 mps 556 mmHg 77%
    09:00 +15°C° 0 mm 2 mps 557 mmHg 69%
    10:00 +17°C° 0 mm 3 mps 558 mmHg 62%
    11:00 +18°C° 0 mm 3 mps 558 mmHg 54%
    12:00 +18°C° 0 mm 3 mps 558 mmHg 54%
    13:00 +18°C° 0 mm 3 mps 557 mmHg 55%
    14:00 +18°C° 0 mm 3 mps 557 mmHg 55%
    15:00 +17°C° 0 mm 3 mps 556 mmHg 61%
    16:00 +16°C° 0 mm 2 mps 556 mmHg 67%
    17:00 +15°C° 0 mm 2 mps 555 mmHg 73%
    18:00 +14°C° 0 mm 2 mps 555 mmHg 77%
    19:00 +13°C° 0 mm 2 mps 556 mmHg 80%
    20:00 +12°C° 0 mm 1 mps 556 mmHg 83%
    21:00 +12°C° 0 mm 1 mps 556 mmHg 85%
    22:00 +12°C° 0 mm 1 mps 556 mmHg 86%
    23:00 +12°C° 0 mm 1 mps 556 mmHg 87%

    Tomorrow, 23 October, Tuesday

    Time Temperature Precipitation Wind Pressure Humidity
    00:00 +11°C° 0 mm 1 mps 555 mmHg 88%
    01:00 +11°C° 0 mm 1 mps 555 mmHg 89%
    02:00 +11°C° 0 mm 1 mps 554 mmHg 90%
    03:00 +11°C° 0 mm 1 mps 554 mmHg 90%
    04:00 +10°C° 0 mm 1 mps 554 mmHg 91%
    05:00 +10°C° 0 mm 1 mps 554 mmHg 91%
    06:00 +12°C° 0 mm 1 mps 555 mmHg 85%
    07:00 +13°C° 0 mm 1 mps 556 mmHg 79%
    08:00 +15°C° 0 mm 2 mps 557 mmHg 73%
    09:00 +16°C° 0 mm 2 mps 558 mmHg 66%
    10:00 +17°C° 0 mm 2 mps 558 mmHg 60%
    11:00 +19°C° 0 mm 3 mps 559 mmHg 54%
    12:00 +19°C° 0 mm 3 mps 558 mmHg 54%
    13:00 +19°C° 0 mm 3 mps 558 mmHg 53%
    14:00 +20°C° 0 mm 3 mps 557 mmHg 52%
    15:00 +18°C° 0 mm 3 mps 556 mmHg 59%
    16:00 +17°C° 0 mm 3 mps 556 mmHg 66%
    17:00 +15°C° 0 mm 2 mps 555 mmHg 73%
    18:00 +14°C° 0 mm 2 mps 555 mmHg 77%
    19:00 +13°C° 0 mm 2 mps 555 mmHg 81%
    20:00 +12°C° 0 mm 1 mps 555 mmHg 84%
    21:00 +12°C° 0 mm 1 mps 555 mmHg 84%
    22:00 +11°C° 0 mm 1 mps 555 mmHg 83%
    23:00 +11°C° 0 mm 1 mps 555 mmHg 82%

    Day after tomorrow, 24 October, Wednesday

    Time Temperature Precipitation Wind Pressure Humidity
    00:00 +11°C° 0 mm 1 mps 554 mmHg 83%
    01:00 +11°C° 0 mm 1 mps 554 mmHg 84%
    02:00 +10°C° 0 mm 1 mps 554 mmHg 85%
    03:00 +10°C° 0 mm 1 mps 554 mmHg 85%
    04:00 +10°C° 0 mm 1 mps 553 mmHg 86%
    05:00 +10°C° 0 mm 1 mps 553 mmHg 87%
    06:00 +12°C° 0 mm 1 mps 555 mmHg 80%
    07:00 +14°C° 0 mm 1 mps 556 mmHg 74%
    08:00 +16°C° 0 mm 1 mps 557 mmHg 68%
    09:00 +18°C° 0 mm 1 mps 558 mmHg 61%
    10:00 +20°C° 0 mm 1 mps 558 mmHg 55%
    11:00 +21°C° 0 mm 1 mps 558 mmHg 49%
    12:00 +21°C° 0.1 mm 1 mps 558 mmHg 49%
    13:00 +21°C° 0.1 mm 1 mps 557 mmHg 49%
    14:00 +22°C° 0.1 mm 1 mps 557 mmHg 49%
    15:00 +20°C° 0.1 mm 1 mps 556 mmHg 56%
    16:00 +19°C° 0.1 mm 1 mps 555 mmHg 63%
    17:00 +16°C° 0.1 mm 1 mps 555 mmHg 71%
    18:00 +15°C° 0.1 mm 1 mps 555 mmHg 74%
    19:00 +15°C° 0.1 mm 1 mps 555 mmHg 77%
    20:00 +14°C° 0.1 mm 1 mps 555 mmHg 80%
    21:00 +13°C° 0 mm 1 mps 555 mmHg 81%
    22:00 +13°C° 0 mm 1 mps 555 mmHg 81%
    23:00 +13°C° 0 mm 1 mps 555 mmHg 81%

    25 October, Thursday

    Time Temperature Precipitation Wind Pressure Humidity
    00:00 +12°C° 0 mm 1 mps 554 mmHg 82%
    01:00 +12°C° 0 mm 1 mps 554 mmHg 83%
    02:00 +12°C° 0 mm 1 mps 553 mmHg 84%
    03:00 +11°C° 0 mm 1 mps 553 mmHg 84%
    04:00 +11°C° 0 mm 1 mps 553 mmHg 84%
    05:00 +11°C° 0 mm 1 mps 553 mmHg 85%
    06:00 +13°C° 0 mm 1 mps 554 mmHg 79%
    07:00 +14°C° 0 mm 1 mps 556 mmHg 73%
    08:00 +16°C° 0 mm 1 mps 557 mmHg 67%
    09:00 +18°C° 0 mm 1 mps 557 mmHg 62%
    10:00 +18°C° 0 mm 2 mps 557 mmHg 58%
    11:00 +19°C° 0 mm 2 mps 558 mmHg 53%
    12:00 +19°C° 0.2 mm 2 mps 557 mmHg 55%
    13:00 +19°C° 0.2 mm 2 mps 556 mmHg 57%
    14:00 +19°C° 0.2 mm 2 mps 556 mmHg 59%
    15:00 +18°C° 0.4 mm 2 mps 555 mmHg 65%
    16:00 +16°C° 0.4 mm 2 mps 555 mmHg 72%
    17:00 +15°C° 0.4 mm 2 mps 555 mmHg 78%
    18:00 +15°C° 0.2 mm 2 mps 555 mmHg 81%
    19:00 +14°C° 0.2 mm 2 mps 555 mmHg 84%
    20:00 +13°C° 0.2 mm 1 mps 555 mmHg 88%
    21:00 +13°C° 0.3 mm 1 mps 555 mmHg 88%
    22:00 +13°C° 0.3 mm 1 mps 555 mmHg 88%
    23:00 +12°C° 0.3 mm 1 mps 555 mmHg 89%

    26 October, Friday

    Time Temperature Precipitation Wind Pressure Humidity
    00:00 +12°C° 0.1 mm 1 mps 554 mmHg 89%
    01:00 +12°C° 0.1 mm 1 mps 554 mmHg 89%
    02:00 +12°C° 0.1 mm 1 mps 554 mmHg 90%
    03:00 +11°C° 0 mm 1 mps 554 mmHg 90%
    04:00 +11°C° 0 mm 1 mps 554 mmHg 89%
    05:00 +11°C° 0 mm 1 mps 554 mmHg 89%
    06:00 +12°C° 0 mm 1 mps 555 mmHg 83%
    07:00 +14°C° 0 mm 1 mps 556 mmHg 78%
    08:00 +15°C° 0 mm 1 mps 557 mmHg 72%
    09:00 +16°C° 0.2 mm 1 mps 557 mmHg 67%
    10:00 +19°C° 0.2 mm 1 mps 557 mmHg 63%
    11:00 +19°C° 0.2 mm 2 mps 558 mmHg 58%
    12:00 +19°C° 0.7 mm 2 mps 557 mmHg 60%
    13:00 +18°C° 0.7 mm 2 mps 556 mmHg 62%
    14:00 +18°C° 0.7 mm 2 mps 556 mmHg 63%
    15:00 +17°C° 0.7 mm 2 mps 555 mmHg 69%
    16:00 +16°C° 0.7 mm 2 mps 555 mmHg 75%
    17:00 +15°C° 0.7 mm 2 mps 555 mmHg 80%
    18:00 +14°C° 0.3 mm 2 mps 555 mmHg 83%
    19:00 +14°C° 0.3 mm 2 mps 555 mmHg 85%
    20:00 +13°C° 0.3 mm 1 mps 555 mmHg 88%
    21:00 +13°C° 0.2 mm 1 mps 555 mmHg 88%
    22:00 +13°C° 0.2 mm 1 mps 555 mmHg 89%
    23:00 +12°C° 0.2 mm 1 mps 555 mmHg 89%

    27 October, Saturday

    Time Temperature Precipitation Wind Pressure Humidity
    00:00 +12°C° 0.1 mm 1 mps 555 mmHg 90%
    01:00 +12°C° 0.1 mm 1 mps 554 mmHg 90%
    02:00 +11°C° 0.1 mm 1 mps 554 mmHg 91%
    03:00 +11°C° 0 mm 1 mps 554 mmHg 91%
    04:00 +11°C° 0 mm 1 mps 554 mmHg 91%
    05:00 +11°C° 0 mm 1 mps 554 mmHg 91%
    06:00 +12°C° 0 mm 1 mps 555 mmHg 86%
    07:00 +13°C° 0 mm 1 mps 556 mmHg 81%
    08:00 +14°C° 0 mm 2 mps 557 mmHg 76%
    09:00 +16°C° 0 mm 2 mps 557 mmHg 70%
    10:00 +17°C° 0 mm 2 mps 558 mmHg 64%
    11:00 +18°C° 0 mm 2 mps 558 mmHg 58%
    12:00 +18°C° 0.2 mm 2 mps 558 mmHg 58%
    13:00 +19°C° 0.2 mm 2 mps 557 mmHg 59%
    14:00 +19°C° 0.2 mm 2 mps 557 mmHg 59%
    15:00 +17°C° 0.3 mm 2 mps 556 mmHg 65%
    16:00 +16°C° 0.3 mm 2 mps 556 mmHg 71%
    17:00 +15°C° 0.3 mm 2 mps 556 mmHg 76%
    18:00 +14°C° 0.1 mm 2 mps 556 mmHg 80%
    19:00 +13°C° 0.1 mm 2 mps 556 mmHg 83%
    20:00 +13°C° 0.1 mm 2 mps 556 mmHg 87%
    21:00 +12°C° 0 mm 2 mps 556 mmHg 88%
    22:00 +12°C° 0 mm 1 mps 556 mmHg 89%
    23:00 +12°C° 0 mm 1 mps 555 mmHg 89%

    28 October, Sunday

    Time Temperature Precipitation Wind Pressure Humidity
    00:00 +12°C° 0 mm 1 mps 555 mmHg 89%
    01:00 +11°C° 0 mm 1 mps 555 mmHg 89%
    02:00 +11°C° 0 mm 1 mps 555 mmHg 89%
    03:00 +11°C° 0 mm 1 mps 555 mmHg 89%
    04:00 +11°C° 0 mm 1 mps 555 mmHg 89%
    05:00 +11°C° 0 mm 1 mps 555 mmHg 89%
    06:00 +12°C° 0 mm 1 mps 556 mmHg 85%
    07:00 +13°C° 0 mm 1 mps 557 mmHg 80%
    08:00 +14°C° 0 mm 1 mps 558 mmHg 76%
    09:00 +15°C° 0 mm 2 mps 558 mmHg 71%
    10:00 +16°C° 0 mm 2 mps 559 mmHg 65%
    11:00 +18°C° 0 mm 2 mps 559 mmHg 60%
    12:00 +18°C° 0.2 mm 2 mps 559 mmHg 61%
    13:00 +18°C° 0.2 mm 3 mps 558 mmHg 63%
    14:00 +17°C° 0.2 mm 3 mps 558 mmHg 64%
    15:00 +16°C° 0.3 mm 3 mps 557 mmHg 69%
    16:00 +14°C° 0.3 mm 3 mps 557 mmHg 74%
    17:00 +13°C° 0.3 mm 3 mps 557 mmHg 80%
    18:00 +12°C° 0.1 mm 3 mps 557 mmHg 83%
    19:00 +12°C° 0.1 mm 2 mps 557 mmHg 85%
    20:00 +12°C° 0.1 mm 2 mps 557 mmHg 88%
    21:00 +10°C° 0 mm 2 mps 557 mmHg 88%
    22:00 +10°C° 0 mm 2 mps 556 mmHg 88%
    23:00 +10°C° 0 mm 2 mps 556 mmHg 88%
    Show more